Content
SEND FEEDBACK

Daily
Averages
Monthly
Summary
United Kingdom

LONDON, ENGLAND


Home > Europe > United Kingdom > England
Elevation: 61 meters     Latitude: 51 09N     Longitude: 000 11W

WEATHER
 
SELECT A DAY
Number of Records: 294,488;   Date Range: 7/1/96 - 9/16/14
 
SHARE

PRINT THIS DATA

[ ← Previous Day ]
WEATHER ALMANAC - 18 APRIL, 2013
[ Next Day → ]
[ °F ]   °C
Weather ElementAverageHighLow
Temperature10.1 °C13 °C (11:50 am)8 °C (8:50 pm)
Dewpoint4.8 °C8 °C (5:20 pm)2 °C (10:20 pm)
Humidity70.5 %87 % (5:20 pm)58 % (11:50 am)
Barometer1014.6 hPa1020 hPa (11:50 pm)1010.2 hPa (12:50 am)
Wind Speed26.6 km/h37 km/h (3:50 pm)
Wind Gust55.5 km/h (2:50 pm)
Weather ElementAverage
Visibility9.7 km
Wind DirectionWSW (234 °)

Weather ElementTotal
Precipitation---
Heating Degree Days7.8 (Base 18.3)
Growing Degree Days0.5 (Base 10)
Averaged from 47 records on 18 April, 2013
WEATHER CONDITIONS BREAKOUT
WIND DIRECTION BREAKOUT
WEATHER BY HOUR - 18 APRIL, 2013
[ °F ]   °C
Local TimeTemperatureDewpointHumidityBarometerVisibilityWind DirectionWind SpeedGust SpeedPrecipitationEventsConditions
12:50 AM10 °C6 °C76 %1010.2 hPa8 kmSW (230°)31.5 km/h50.1 km/hMostly Cloudy
1:20 AM10 °C6 °C76 %1011.2 hPa8 kmSW (230°)29.6 km/hOvercast
1:50 AM10 °C6 °C76 %1011.2 hPa8 kmSW (230°)27.8 km/hOvercast
2:20 AM9 °C6 °C82 %1011.2 hPa8 kmSW (230°)27.8 km/h50.1 km/hOvercast
2:50 AM9 °C5 °C76 %1011.2 hPa10 kmSW (230°)27.8 km/hMostly Cloudy
3:20 AM9 °C5 °C76 %1011.2 hPa10 kmWSW (240°)29.6 km/h48.1 km/hMostly Cloudy
3:50 AM9 °C4 °C71 %1011.2 hPa10 kmWSW (240°)33.3 km/hMostly Cloudy
4:20 AM9 °C4 °C71 %1011.2 hPa10 kmSW (230°)25.9 km/hMostly Cloudy
4:50 AM9 °C4 °C71 %1011.2 hPa10 kmWSW (240°)24.1 km/h44.4 km/hMostly Cloudy
5:20 AM9 °C5 °C76 %1011.2 hPa10 kmSW (230°)29.6 km/hMostly Cloudy
5:50 AM9 °C5 °C76 %1011.2 hPa10 kmSW (230°)29.6 km/h53.8 km/hMostly Cloudy
6:20 AM9 °C4 °C71 %1012.2 hPa10 kmSW (230°)27.8 km/hPartly Cloudy
6:50 AM9 °C4 °C71 %1012.2 hPa10 kmSW (230°)31.5 km/hScattered Clouds
7:20 AM9 °C4 °C71 %1012.2 hPa10 kmSW (230°)31.5 km/h50.1 km/hScattered Clouds
7:50 AM10 °C4 °C66 %1012.2 hPa10 kmSW (230°)31.5 km/hScattered Clouds
8:20 AM10 °C4 °C66 %1013.2 hPa10 kmSW (230°)35.2 km/hScattered Clouds
8:50 AM10 °C4 °C66 %1013.2 hPa10 kmSW (230°)31.5 km/hMostly Cloudy
9:20 AM10 °C5 °C71 %1013.2 hPa10 kmSW (230°)27.8 km/hMostly Cloudy
9:50 AM10 °C5 °C71 %1014.2 hPa10 kmSW (230°)29.6 km/hMostly Cloudy
10:20 AM11 °C5 °C67 %1014.2 hPa10 kmSW (230°)31.5 km/hRainLight Rain Showers
10:50 AM11 °C5 °C67 %1014.2 hPa10 kmSW (230°)31.5 km/hMostly Cloudy
11:20 AM12 °C5 °C62 %1014.2 hPa10 kmSW (230°)31.5 km/hMostly Cloudy
11:50 AM13 °C5 °C58 %1014.2 hPa10 kmSW (230°)27.8 km/h46.3 km/hScattered Clouds
12:20 PM12 °C5 °C62 %1015.2 hPa10 kmSW (230°)35.2 km/hMostly Cloudy
12:50 PM13 °C5 °C58 %1015.2 hPa10 kmSW (230°)35.2 km/hMostly Cloudy
1:20 PM13 °C5 °C58 %1015.2 hPa10 kmSW (230°)35.2 km/hScattered Clouds
1:50 PM13 °C5 °C58 %1015.2 hPa10 kmSW (220°)33.3 km/hScattered Clouds
2:20 PM13 °C5 °C58 %1015.2 hPa10 kmSW (230°)29.6 km/h50.1 km/hScattered Clouds
2:50 PM12 °C5 °C62 %1015.2 hPa10 kmSW (220°)33.3 km/h55.5 km/hMostly Cloudy
3:20 PM12 °C6 °C67 %1015.2 hPa10 kmSW (230°)33.3 km/h53.8 km/hScattered Clouds
3:50 PM12 °C5 °C62 %1015.2 hPa10 kmSW (220°)37 km/hMostly Cloudy
4:20 PM12 °C5 °C62 %1015.2 hPa10 kmSW (220°)31.5 km/hScattered Clouds
4:50 PM10 °C7 °C82 %1016.3 hPa6.9 kmWest (270°)24.1 km/hRainRain
5:20 PM10 °C8 °C87 %1016.3 hPa10 kmWSW (250°)18.5 km/hScattered Clouds
5:50 PM9 °C6 °C82 %1016.3 hPa10 kmSW (230°)25.9 km/h44.4 km/hScattered Clouds
6:20 PM10 °C7 °C82 %1016.3 hPa10 kmWSW (240°)16.7 km/hMostly Cloudy
6:50 PM10 °C7 °C82 %1016.3 hPa10 kmSW (230°)14.8 km/hScattered Clouds
7:20 PM10 °C6 °C76 %1017.3 hPa10 kmSW (230°)16.7 km/hPartly Cloudy
7:50 PM10 °C6 °C76 %1017.3 hPa10 kmWSW (240°)16.7 km/hScattered Clouds
8:20 PM9 °C6 °C82 %1017.9 hPa10 kmSW (230°)11.1 km/hPartly Cloudy
8:50 PM8 °C4 °C76 %1017.9 hPaWest (260°)16.7 km/hClear
9:20 PM8 °C3 °C71 %1017.9 hPaWest (260°)20.4 km/hClear
9:50 PM8 °C3 °C71 %1019 hPa10 kmWSW (250°)16.7 km/hPartly Cloudy
10:20 PM8 °C2 °C66 %1019 hPa10 kmWSW (250°)14.8 km/hPartly Cloudy
10:50 PM8 °C2 °C66 %1019 hPaWSW (240°)16.7 km/hClear
11:20 PM8 °C2 °C66 %1019 hPaWSW (240°)16.7 km/hClear
11:50 PM8 °C2 °C66 %1020 hPaSW (230°)14.8 km/hClear
Hourly data recorded from EGKK, located 0 kilometers away from London, England







STORIES FROM OUR PARTNERS